Regional Weather Roundup
Issued by NWS

Home | Current Version | Previous Version | Text Only | Print | Product List | Glossary On
Versions: 1 2 3 4 5 6 7 8 9 10 11 12 13 14 15 16 17 18 19 20 21 22 23 24 25 26 27 28 29 30 31 32 33 34 35 36 37 38 39 40 41 42 43 44 45 46 47 48 49 50
000
ASUS44 KMEG 191110
RWRTN
TENNESSEE HOURLY STATE WEATHER ROUNDUP
NATIONAL WEATHER SERVICE MEMPHIS TN
600 AM CDT SUN APR 19 2015

TNZ002-004-019-021-049-052-054-088>092-191200-
WEST TENNESSEE

CITY           SKY/WX    TMP DP  RH WIND       PRES   REMARKS
MEMPHIS INTL   LGT RAIN  66  63  90 S8        29.66F
NWS MEMPHIS      N/A     64 N/A N/A MISG        N/A
JACKSON        CLOUDY    65  63  93 SE3       29.67F
DYERSBURG      CLOUDY    64  54  68 CALM      29.67F
UNION CITY     MOCLDY    63  32  31 CALM      29.67F
PARIS          CLOUDY    63  61  94 CALM      29.69F
LEXINGTON      CLOUDY    63  63 100 CALM      29.68F
SAVANNAH       CLOUDY    64  32  29 CALM      29.68F
$$

TNZ008-025-027-028-033-062-065-066-191200-
NORTH MIDDLE TENNESSEE

CITY           SKY/WX    TMP DP  RH WIND       PRES   REMARKS
NASHVILLE      LGT RAIN  65  64  97 SE6       29.72F
CLARKSVILLE    RAIN      64  64 100 SE8       29.71F FOG
SMYRNA         LGT RAIN  64  64 100 SE5       29.74F
COOKEVILLE     MOCLDY    64  63  94 SE5         N/A
CROSSVILLE     LGT RAIN  63  60  90 SE5       29.82F
$$

TNZ061-075-076-078-094-096-097-191200-
SOUTH MIDDLE TENNESSEE

CITY           SKY/WX    TMP DP  RH WIND       PRES   REMARKS
FAYETTEVILLE   CLOUDY    63  63 100 SE9       29.73F
TULLAHOMA      CLOUDY    64  63  94 SE7       29.76S
WINCHESTER     CLOUDY    64  63  94 SE8       29.75S
MCMINNVILLE    PTCLDY    64  64 100 E5        29.76F
COLUMBIA       CLOUDY    64  32  29 E5        29.68F
SHELBYVILLE    CLOUDY    66  66 100 SE6       29.74S
$$

TNZ017-018-042-046-047-191200-
NORTHEAST TENNESSEE

CITY           SKY/WX    TMP DP  RH WIND       PRES   REMARKS
TRI CITIES     CLOUDY    66  57  72 E7        29.90S
ELIZABETHTON   MOSUNNY   64  55  72 E7        29.91S
$$

TNZ012-013-036-069-073-074-191200-
CENTRAL EAST TENNESSEE

CITY           SKY/WX    TMP DP  RH WIND       PRES   REMARKS
KNOXVILLE      RAIN      63  62  97 CALM      29.83  FOG
OAK RIDGE      LGT RAIN  64  62  93 CALM      29.85S
GATLINBURG     CLOUDY    61  61 100 VRB3      29.84S VSB 1/2
MORRISTOWN     MOSUNNY   66  61  82 E7        29.86S
$$

TNZ083-085-099-191200-
SOUTHEAST TENNESSEE

CITY           SKY/WX    TMP DP  RH WIND       PRES   REMARKS
CHATTANOOGA    RAIN      67  64  90 SE13      29.78F FOG
$$

SKY/WX REPORTED AS FAIR MEANS FEW OR NO CLOUDS BELOW
12 THOUSAND FEET.




USA.gov is the U.S. government's official web portal to all federal, state and local government web resources and services.